Location: Notre Dame Regional High School Observatory
(37.3056°N, 89.6097°W)
Time: 20:49:52
(UTC-05:00)

Okean 2 Rocket - Visible Passes

Search period start: 28 June 2016 00:00
Search period end: 08 July 2016 00:00
Orbit: 617 x 642 km, 82.5° (Epoch: 27 June)

Date Brightness Start Highest point End Pass type
(mag) Time Alt. Az. Time Alt. Az. Time Alt. Az.
28 Jun 3.8 01:51:20 52° N 01:51:20 52° N 01:54:48 10° N visible
29 Jun 5.5 00:34:32 14° ENE 00:34:32 14° ENE 00:35:54 10° NE visible
29 Jun 4.3 02:11:55 36° NW 02:11:55 36° NW 02:15:14 10° N visible
30 Jun 4.9 00:55:06 26° ENE 00:55:06 26° ENE 00:57:41 10° NNE visible
30 Jun 5.0 02:32:28 20° WNW 02:32:28 20° WNW 02:35:09 10° NNW visible
01 Jul 4.2 01:15:39 41° NNE 01:15:39 41° NNE 01:18:43 10° NNE visible
02 Jul 4.2 01:36:11 41° NNW 01:36:11 41° NNW 01:39:21 10° N visible
03 Jul 5.2 00:19:21 19° ENE 00:19:21 19° ENE 00:21:15 10° NE visible
03 Jul 4.8 01:56:43 25° NW 01:56:43 25° NW 01:59:32 10° NNW visible
04 Jul 4.6 00:39:51 32° NE 00:39:51 32° NE 00:42:33 10° NNE visible
04 Jul 5.5 02:17:13 14° WNW 02:17:13 14° WNW 02:18:56 10° NW visible
05 Jul 4.3 01:00:21 42° N 01:00:21 42° N 01:03:21 10° N visible
05 Jul 5.5 23:43:29 13° ENE 23:43:29 13° ENE 23:44:35 10° NE visible
06 Jul 4.6 01:20:51 31° NW 01:20:51 31° NW 01:23:46 10° N visible
07 Jul 4.9 00:03:58 24° NE 00:03:58 24° NE 00:06:17 10° NNE visible
07 Jul 5.3 01:41:20 18° WNW 01:41:20 18° WNW 01:43:37 10° NNW visible
